S-NET C (43189 NORAD) Tracking and Keplerian Element Data

This shows tracking and keplerian element data for the satellite.

Feedback or suggestion? Click here.




ElementValue
Catalog43189
NameS-NET C
Epoch Orbit25269
Epoch Day270.15834833
Epoch Year2022
RAAN173.8528
Inclination97.6481
Eccentricity0.0009291
Argument of Perigee326.8251
Mean Anonmoly33.2388
Mean Motion14.98221254
Decay Rate2.785E-05
L11 43189U 18014K 22270.15834833 .00002785 00000+0 23924-3 0 9991
L22 43189 97.6481 173.8528 0009291 326.8251 33.2388 14.98221254252693

Live tracking and technical data element details for S-NET C (NORAD 43189). S-NET C can be tracked NOW for your location showing map with azimuth and elevation plus other details from your city location.

Track the satellite on the map from your city or location and see movement details for azimuth, elevation, latitude, longitude, range, height, and movement on the map or in text.







IsCatalogInMostPopularTable: catalog: 43189, numindb: 638
Update: records affected: 1



GetName: 43189 S-NET C

Hit Count: updated at: Wed, 05 Oct 2022 10:06:38 GMT